period_start,C,m1,H,J0,J1,J2,J3,J4,J5,JA,JB,JC,JD,JJ,JK,JN,#
2017-08-11 00:04:15,0.00,9.52,0.00,23.25,27.72,30.46,14.43,67.26,1023.91,2024.99,1154.69,1594.99,1724.74,600.00,599.82,20.07,0000 0000 0000 0000 000000
2017-08-11 00:09:16,-0.01,9.52,0.00,23.22,27.70,30.45,14.32,67.06,1023.86,2025.00,1154.71,1595.00,1724.94,599.76,599.57,20.12,0000 0000 0000 0000 000000
2017-08-11 00:14:18,0.00,9.52,0.00,23.20,27.67,30.45,14.34,67.38,1023.82,2025.02,1154.66,1595.01,1724.98,599.78,599.69,20.17,0000 0000 0000 0000 000000
2017-08-11 00:19:19,0.02,9.52,0.00,23.19,27.65,30.43,14.36,67.42,1023.76,2025.06,1154.46,1595.04,1724.99,599.82,599.65,20.22,0000 0000 0000 0000 000000
2017-08-11 00:24:20,0.04,9.52,0.00,23.16,27.62,30.37,14.39,67.41,1023.60,2025.24,1154.32,1595.16,1724.99,600.10,599.95,20.27,0000 0000 0000 0000 000000
2017-08-11 00:29:22,0.06,9.52,0.00,23.14,27.60,30.37,14.39,67.33,1023.67,2025.73,1154.10,1595.50,1724.99,599.87,599.76,20.32,0000 0000 0000 0000 000000
2017-08-11 00:34:23,-0.00,9.52,0.00,23.12,27.58,30.35,14.39,67.26,1023.54,2025.97,1154.09,1595.87,1725.02,599.98,599.86,20.37,0000 0000 0000 0000 000000
2017-08-11 00:39:24,-0.00,9.52,0.00,23.10,27.56,30.28,14.39,67.08,1023.47,2025.99,1154.04,1595.96,1725.11,600.17,600.07,20.42,0000 0000 0000 0000 000000
2017-08-11 00:44:25,-0.00,9.52,0.00,23.08,27.54,30.28,14.37,67.34,1023.46,2025.99,1154.00,1595.98,1725.35,600.05,599.95,20.47,0000 0000 0000 0000 000000
2017-08-11 00:49:26,-0.02,9.52,0.00,23.05,27.51,30.26,14.36,67.33,1023.45,2025.99,1154.01,1595.98,1725.65,600.16,600.06,20.52,0000 0000 0000 0000 000000
2017-08-11 00:54:28,-0.00,9.52,0.00,23.03,27.49,30.25,14.31,67.23,1023.45,2026.00,1154.01,1595.99,1725.94,599.72,599.47,20.57,0000 0000 0000 0000 000000
2017-08-11 00:59:29,-0.00,9.52,0.00,23.02,27.47,30.26,14.33,67.27,1023.45,2026.01,1154.00,1595.99,1725.96,599.99,599.99,20.62,0000 0000 0000 0000 000000
2017-08-11 01:04:30,0.01,9.52,0.00,23.00,27.45,30.20,14.36,67.44,1023.37,2026.07,1154.00,1595.99,1725.98,599.88,599.98,20.67,0000 0000 0000 0000 000000
2017-08-11 01:09:31,0.01,9.52,0.00,22.98,27.42,30.21,14.41,67.42,1023.22,2026.22,1154.00,1596.01,1725.99,600.46,600.39,20.72,0000 0000 0000 0000 000000
2017-08-11 01:14:32,0.04,9.53,0.00,22.97,27.40,30.17,14.37,67.36,1023.39,2026.53,1154.00,1596.04,1725.99,599.96,600.10,20.77,0000 0000 0000 0000 000000
2017-08-11 01:19:34,0.05,9.53,0.00,22.95,27.38,30.17,14.40,67.26,1023.44,2026.87,1154.00,1596.07,1726.00,600.12,600.27,20.82,0000 0000 0000 0000 000000
2017-08-11 01:24:35,-0.02,9.53,0.00,22.93,27.36,30.14,14.42,67.31,1023.36,2026.96,1154.00,1596.35,1726.02,599.90,600.04,20.87,0000 0000 0000 0000 000000
2017-08-11 01:29:36,-0.02,9.53,0.00,22.91,27.34,30.17,14.39,67.26,1023.16,2026.98,1154.00,1596.66,1726.06,600.02,600.08,20.92,0000 0000 0000 0000 000000
2017-08-11 01:34:38,-0.01,9.53,0.00,22.90,27.32,30.12,14.31,67.07,1022.99,2026.99,1154.00,1596.92,1726.23,599.93,599.80,20.97,0000 0000 0000 0000 000000
2017-08-11 01:39:39,-0.02,9.52,0.00,22.89,27.30,30.11,14.32,67.21,1022.98,2026.99,1154.00,1596.96,1726.61,599.79,599.76,21.02,0000 0000 0000 0000 000000
2017-08-11 01:44:40,-0.01,9.52,0.00,22.87,27.28,30.09,14.39,67.38,1023.00,2026.99,1153.99,1596.98,1726.91,600.17,600.17,21.07,0000 0000 0000 0000 000000
2017-08-11 01:49:41,0.00,9.52,0.00,22.86,27.26,30.06,14.35,67.18,1022.97,2027.02,1153.99,1596.99,1726.97,599.94,599.93,21.12,0000 0000 0000 0000 000000
2017-08-11 01:54:43,0.01,9.52,0.00,22.85,27.25,30.06,14.39,67.23,1022.96,2027.07,1153.98,1596.99,1726.99,599.94,600.06,21.17,0000 0000 0000 0000 000000
2017-08-11 01:59:44,0.02,9.52,0.00,22.83,27.22,30.02,14.40,67.43,1022.96,2027.23,1153.99,1596.99,1726.99,600.01,600.17,21.22,0000 0000 0000 0000 000000
2017-08-11 02:04:45,0.04,9.53,0.00,22.82,27.20,30.00,14.37,67.41,1022.95,2027.44,1153.99,1596.99,1726.99,599.88,600.02,21.27,0000 0000 0000 0000 000000
2017-08-11 02:09:46,0.05,9.53,0.00,22.81,27.19,30.00,14.36,67.45,1022.73,2027.85,1153.98,1597.00,1726.99,600.01,600.06,21.32,0000 0000 0000 0000 000000
2017-08-11 02:14:48,0.01,9.53,0.00,22.80,27.17,29.97,14.34,67.29,1022.54,2027.97,1153.97,1597.02,1726.99,599.99,600.06,21.37,0000 0000 0000 0000 000000
2017-08-11 02:19:49,0.00,9.53,0.00,22.78,27.15,29.97,14.33,67.53,1022.50,2027.99,1153.95,1597.03,1727.00,600.24,600.20,21.42,0000 0000 0000 0000 000000
2017-08-11 02:24:50,-0.01,9.53,0.00,22.76,27.13,29.97,14.37,67.45,1022.51,2027.99,1153.93,1597.16,1727.01,600.08,600.07,21.47,0000 0000 0000 0000 000000
2017-08-11 02:29:52,-0.00,9.53,0.00,22.74,27.12,29.95,14.45,67.47,1022.50,2027.99,1153.87,1597.28,1727.03,600.23,600.15,21.52,0000 0000 0000 0000 000000
2017-08-11 02:34:53,-0.03,9.53,0.00,22.74,27.10,29.93,14.41,67.41,1022.50,2027.99,1153.83,1597.70,1727.08,600.23,600.31,21.57,0000 0000 0000 0000 000000
2017-08-11 02:39:54,-0.00,9.53,0.00,22.72,27.08,29.92,14.39,67.39,1022.49,2027.99,1153.64,1597.88,1727.24,600.03,600.07,21.62,0000 0000 0000 0000 000000
2017-08-11 02:44:56,-0.01,9.53,0.00,22.70,27.06,29.90,14.45,67.37,1022.49,2028.01,1153.71,1597.97,1727.49,600.08,600.23,21.67,0000 0000 0000 0000 000000
2017-08-11 02:49:57,-0.00,9.53,0.00,22.69,27.05,29.91,14.37,67.34,1022.48,2028.01,1153.49,1597.97,1727.91,599.90,600.14,21.72,0000 0000 0000 0000 000000
2017-08-11 02:54:59,0.01,9.53,0.00,22.67,27.03,29.89,14.36,67.52,1022.13,2028.06,1153.42,1597.99,1727.96,599.73,599.74,21.77,0000 0000 0000 0000 000000
2017-08-11 03:00:00,0.06,9.53,0.00,22.67,27.02,29.88,14.38,67.78,1022.00,2028.32,1153.30,1597.99,1727.97,599.73,599.62,21.82,0000 0000 0000 0000 000000
2017-08-11 03:05:01,0.05,9.53,0.00,22.65,27.00,29.86,14.27,67.43,1021.99,2028.59,1153.18,1597.99,1727.99,599.48,599.36,21.87,0000 0000 0000 0000 000000
2017-08-11 03:10:03,0.03,9.53,0.00,22.64,26.98,29.82,14.37,67.58,1021.99,2028.80,1153.07,1597.99,1727.99,599.88,599.84,21.92,0000 0000 0000 0000 000000
2017-08-11 03:15:04,0.02,9.54,0.00,22.62,26.97,29.81,14.40,67.43,1021.98,2028.93,1153.01,1597.99,1727.99,599.80,599.71,21.97,0000 0000 0000 0000 000000
2017-08-11 03:20:05,0.01,9.54,0.00,22.60,26.95,29.80,14.41,67.48,1021.81,2028.98,1153.01,1598.00,1727.99,600.02,599.87,22.02,0000 0000 0000 0000 000000
2017-08-11 03:25:07,0.00,9.54,0.00,22.59,26.93,29.79,14.40,67.45,1021.56,2028.98,1153.00,1598.02,1728.00,599.86,599.63,22.07,0000 0000 0000 0000 000000
2017-08-11 03:30:08,-0.00,9.54,0.00,22.58,26.92,29.74,14.30,67.29,1021.51,2028.99,1153.00,1598.05,1728.01,599.91,599.69,22.12,0000 0000 0000 0000 000000
2017-08-11 03:35:09,-0.00,9.54,0.00,22.57,26.90,29.76,14.37,67.25,1021.52,2028.99,1153.01,1598.06,1728.01,599.95,599.76,22.17,0000 0000 0000 0000 000000
2017-08-11 03:40:10,-0.01,9.54,0.00,22.55,26.89,29.74,14.40,67.54,1021.51,2028.99,1153.00,1598.12,1728.02,600.10,599.78,22.22,0000 0000 0000 0000 000000
2017-08-11 03:45:11,-0.01,9.54,0.00,22.54,26.87,29.74,14.34,67.13,1021.52,2028.99,1153.00,1598.28,1728.04,599.59,599.53,22.27,0000 0000 0000 0000 000000
2017-08-11 03:50:13,-0.03,9.53,0.00,22.54,26.86,29.73,14.41,67.47,1021.50,2029.00,1153.00,1598.75,1728.16,600.12,599.81,22.33,0000 0000 0000 0000 000000
2017-08-11 03:55:14,-0.01,9.53,0.00,22.53,26.85,29.70,14.38,67.53,1021.49,2029.00,1153.00,1598.83,1728.37,599.94,599.80,22.38,0000 0000 0000 0000 000000
2017-08-11 04:00:15,-0.02,9.53,0.00,22.52,26.82,29.71,14.38,67.38,1021.49,2029.02,1153.00,1598.94,1728.76,599.99,599.82,22.43,0000 0000 0000 0000 000000
2017-08-11 04:05:16,0.01,9.53,0.00,22.51,26.81,29.71,14.34,67.52,1021.33,2029.06,1153.00,1598.96,1728.91,599.83,599.62,22.48,0000 0000 0000 0000 000000
2017-08-11 04:10:17,-0.00,9.53,0.00,22.50,26.80,29.69,14.36,67.35,1021.37,2029.09,1153.00,1598.97,1728.95,599.70,599.72,22.53,0000 0000 0000 0000 000000
2017-08-11 04:15:18,0.02,9.53,0.00,22.48,26.78,29.68,14.39,67.37,1021.38,2029.18,1153.00,1598.98,1728.97,600.03,599.87,22.58,0000 0000 0000 0000 000000
2017-08-11 04:20:20,0.04,9.53,0.00,22.48,26.77,29.67,14.34,67.35,1021.23,2029.51,1153.00,1598.99,1728.97,599.92,599.65,22.63,0000 0000 0000 0000 000000
2017-08-11 04:25:21,-0.00,9.53,0.00,22.47,26.76,29.63,14.28,67.28,1021.03,2029.57,1152.99,1598.99,1728.99,600.04,599.82,22.68,0000 0000 0000 0000 000000
2017-08-11 04:30:22,0.05,9.54,0.00,22.46,26.75,29.63,14.37,67.53,1021.03,2029.79,1152.99,1598.99,1728.99,600.03,599.75,22.73,0000 0000 0000 0000 000000
2017-08-11 04:35:23,0.02,9.54,0.00,22.44,26.73,29.60,14.40,67.34,1021.01,2029.94,1152.99,1598.99,1728.99,600.09,599.71,22.78,0000 0000 0000 0000 000000
2017-08-11 04:40:24,0.00,9.54,0.00,22.44,26.72,29.60,14.37,67.38,1021.01,2029.97,1152.98,1598.99,1728.99,600.13,599.89,22.83,0000 0000 0000 0000 000000
2017-08-11 04:45:25,0.00,9.54,0.00,22.42,26.70,29.61,14.37,67.33,1021.01,2029.97,1152.98,1598.99,1728.99,600.04,599.92,22.88,0000 0000 0000 0000 000000
2017-08-11 04:50:26,0.00,9.54,0.00,22.42,26.70,29.59,14.45,67.40,1021.01,2029.99,1152.98,1598.99,1728.99,600.31,600.14,22.93,0000 0000 0000 0000 000000
2017-08-11 04:55:28,0.00,9.54,0.00,22.40,26.68,29.57,14.39,67.29,1021.00,2029.99,1152.97,1598.99,1729.00,600.10,599.86,22.98,0000 0000 0000 0000 000000
2017-08-11 05:00:29,0.00,9.54,0.00,22.39,26.67,29.58,14.38,67.46,1020.81,2029.99,1152.93,1598.99,1729.00,599.94,599.59,23.03,0000 0000 0000 0000 000000
2017-08-11 05:05:30,0.01,9.54,0.00,22.39,26.66,29.57,14.44,67.37,1020.74,2029.99,1152.80,1598.99,1729.03,600.14,599.47,23.08,0000 0000 0000 0000 000000
2017-08-11 05:10:31,0.01,9.54,0.00,22.38,26.65,29.56,14.32,67.42,1020.64,2029.99,1152.68,1598.99,1729.03,599.90,599.64,23.13,0000 0000 0000 0000 000000
2017-08-11 05:15:33,0.02,9.54,0.00,22.36,26.63,29.56,14.40,67.38,1020.55,2029.99,1152.44,1599.00,1729.03,600.07,599.73,23.18,0000 0000 0000 0000 000000
2017-08-11 05:20:34,0.01,9.54,0.00,22.35,26.62,29.55,14.33,67.33,1020.54,2030.00,1152.29,1599.01,1729.13,599.93,599.57,23.23,0000 0000 0000 0000 000000
2017-08-11 05:25:36,0.00,9.54,0.00,22.34,26.61,29.53,14.38,67.29,1020.53,2030.02,1152.26,1599.01,1729.33,600.04,599.70,23.28,0000 0000 0000 0000 000000
2017-08-11 05:30:37,-0.01,9.54,0.00,22.33,26.60,29.48,14.33,67.13,1020.52,2030.04,1152.10,1599.05,1729.59,599.99,599.65,23.33,0000 0000 0000 0000 000000
2017-08-11 05:35:38,0.01,9.54,0.00,22.32,26.59,29.48,14.38,67.17,1020.52,2030.05,1152.04,1599.04,1729.60,599.64,599.47,23.38,0000 0000 0000 0000 000000
2017-08-11 05:40:40,-0.00,9.54,0.00,22.32,26.57,29.48,14.31,67.27,1020.49,2030.07,1152.01,1599.04,1729.67,599.98,599.71,23.43,0000 0000 0000 0000 000000
2017-08-11 05:45:41,0.01,9.54,0.00,22.30,26.57,29.48,14.27,67.36,1020.47,2030.17,1152.00,1599.08,1729.80,599.28,599.10,23.48,0000 0000 0000 0000 000000
2017-08-11 05:50:42,0.01,9.54,0.00,22.30,26.57,29.46,14.34,67.40,1020.41,2030.34,1152.02,1599.15,1729.93,600.12,599.71,23.53,0000 0000 0000 0000 000000
2017-08-11 05:55:43,0.05,9.54,0.00,22.29,26.55,29.45,14.37,67.39,1020.14,2030.58,1152.00,1599.20,1729.94,600.04,599.54,23.58,0000 0000 0000 0000 000000
2017-08-11 06:00:45,-0.01,9.54,0.00,22.28,26.55,29.43,14.34,67.42,1020.05,2030.63,1152.00,1599.28,1729.95,599.87,599.36,23.63,0000 0000 0000 0000 000000
2017-08-11 06:05:46,0.00,9.54,0.00,22.28,26.53,29.41,14.26,67.35,1020.04,2030.88,1152.00,1599.60,1729.99,599.97,599.50,23.68,0000 0000 0000 0000 000000
2017-08-11 06:10:47,-0.00,9.54,0.00,22.27,26.52,29.43,14.36,67.34,1020.02,2030.95,1152.00,1599.78,1729.98,599.94,599.35,23.73,0000 0000 0000 0000 000000
2017-08-11 06:15:48,-0.00,9.54,0.00,22.26,26.51,29.43,14.36,67.38,1020.03,2030.98,1152.00,1599.88,1729.98,599.87,599.46,23.78,0000 0000 0000 0000 000000
2017-08-11 06:20:49,-0.00,9.54,0.00,22.26,26.50,29.40,14.35,67.28,1019.99,2030.99,1152.00,1599.92,1729.99,599.97,599.48,23.83,0000 0000 0000 0000 000000
2017-08-11 06:25:51,-0.00,9.54,0.00,22.24,26.50,29.42,14.30,67.55,1019.94,2030.99,1152.00,1599.97,1729.99,599.47,598.98,23.88,0000 0000 0000 0000 000000
2017-08-11 06:30:52,0.00,9.54,0.00,22.24,26.48,29.39,14.36,67.21,1019.88,2030.99,1151.99,1599.97,1729.99,599.90,599.16,23.93,0000 0000 0000 0000 000000
2017-08-11 06:35:53,0.00,9.54,0.00,22.23,26.47,29.40,14.29,67.23,1019.76,2030.99,1151.99,1599.97,1729.99,599.58,599.05,23.98,0000 0000 0000 0000 000000
2017-08-11 06:40:54,0.00,9.54,0.00,22.22,26.47,29.38,14.31,67.33,1019.61,2030.99,1151.98,1599.98,1729.99,599.69,598.94,24.03,0000 0000 0000 0000 000000
2017-08-11 06:45:56,0.00,9.54,0.00,22.21,26.45,29.37,14.31,67.57,1019.61,2031.00,1151.96,1599.99,1730.00,599.71,599.11,24.08,0000 0000 0000 0000 000000
2017-08-11 06:50:57,0.00,9.54,0.00,22.20,26.45,29.37,14.36,67.41,1019.56,2031.01,1151.93,1599.99,1730.00,600.21,599.63,24.13,0000 0000 0000 0000 000000
2017-08-11 06:55:58,0.02,9.54,0.00,22.19,26.44,29.36,14.35,67.34,1019.57,2031.01,1151.72,1599.99,1730.00,599.93,599.30,24.18,0000 0000 0000 0000 000000
2017-08-11 07:01:00,0.04,9.55,0.00,22.19,26.42,29.33,14.33,67.43,1019.57,2031.03,1151.22,1599.97,1730.01,599.86,599.24,24.23,0000 0000 0000 0000 000000
2017-08-11 07:06:02,0.01,9.55,0.00,22.18,26.42,29.34,14.34,67.45,1019.55,2031.04,1151.11,1599.99,1730.01,599.90,599.46,24.28,0000 0000 0000 0000 000000
2017-08-11 07:11:03,0.01,9.55,0.00,22.17,26.41,29.33,14.36,67.36,1019.55,2031.10,1151.03,1599.98,1730.02,599.76,599.23,24.33,0000 0000 0000 0000 000000
2017-08-11 07:16:04,0.04,9.55,0.00,22.17,26.40,29.31,14.37,67.37,1019.54,2031.29,1151.01,1599.99,1730.02,600.18,599.65,24.38,0000 0000 0000 0000 000000
2017-08-11 07:21:05,-0.00,9.55,0.00,22.16,26.40,29.32,14.39,67.45,1019.49,2031.37,1151.00,1599.98,1730.04,600.58,599.99,24.43,0000 0000 0000 0000 000000
2017-08-11 07:26:07,0.05,9.55,0.00,22.14,26.38,29.34,14.36,67.43,1019.40,2031.73,1151.00,1599.99,1730.10,600.22,599.53,24.48,0000 0000 0000 0000 000000
2017-08-11 07:31:08,0.01,9.55,0.00,22.14,26.37,29.31,14.28,67.35,1019.44,2031.90,1151.00,1599.99,1730.16,599.80,599.31,24.53,0000 0000 0000 0000 000000
2017-08-11 07:36:10,0.00,9.55,0.00,22.14,26.37,29.29,14.31,67.35,1019.46,2031.93,1151.00,1599.99,1730.13,599.48,599.05,24.58,0000 0000 0000 0000 000000
2017-08-11 07:41:11,-0.00,9.55,0.00,22.13,26.35,29.27,14.32,67.42,1019.33,2031.95,1151.00,1599.99,1730.11,599.86,599.34,24.63,0000 0000 0000 0000 000000
2017-08-11 07:46:12,-0.01,9.55,0.00,22.12,26.35,29.29,14.39,67.47,1019.24,2031.98,1151.00,1599.99,1730.31,600.02,599.40,24.68,0000 0000 0000 0000 000000
2017-08-11 07:51:14,-0.01,9.55,0.00,22.12,26.35,29.28,14.44,67.65,1019.14,2031.99,1151.00,1599.99,1730.61,600.35,599.63,24.73,0000 0000 0000 0000 000000
2017-08-11 07:56:15,-0.01,9.55,0.00,22.12,26.32,29.26,14.32,67.66,1019.12,2031.99,1150.98,1599.99,1730.90,599.40,598.68,24.78,0000 0000 0000 0000 000000
2017-08-11 08:01:16,0.00,9.55,0.00,22.10,26.32,29.25,14.36,67.50,1019.07,2031.99,1150.99,1599.99,1730.82,599.79,599.08,24.83,0000 0000 0000 0000 000000
2017-08-11 08:06:17,-0.01,9.55,0.00,22.10,26.32,29.24,14.29,67.33,1019.07,2031.99,1150.98,1599.99,1730.92,599.66,598.74,24.88,0000 0000 0000 0000 000000
2017-08-11 08:11:19,-0.00,9.55,0.00,22.09,26.30,29.21,14.31,67.52,1019.08,2031.99,1150.98,1599.99,1730.95,599.62,598.88,24.93,0000 0000 0000 0000 000000
2017-08-11 08:16:20,-0.00,9.55,0.00,22.08,26.30,29.23,14.41,67.47,1019.08,2031.99,1150.98,1599.99,1730.92,600.64,599.93,24.98,0000 0000 0000 0000 000000
2017-08-11 08:21:21,0.03,9.55,0.00,22.08,26.30,29.23,14.34,67.51,1019.08,2031.99,1150.77,1599.99,1730.97,599.92,599.12,25.03,0000 0000 0000 0000 000000
2017-08-11 08:26:23,0.01,9.55,0.00,22.07,26.28,29.23,14.38,67.50,1019.06,2032.00,1150.75,1599.99,1730.98,600.37,599.68,25.08,0000 0000 0000 0000 000000
2017-08-11 08:31:24,0.02,9.55,0.00,22.07,26.27,29.18,14.39,67.38,1019.06,2032.00,1150.58,1600.00,1730.96,600.34,599.70,25.13,0000 0000 0000 0000 000000
2017-08-11 08:36:25,0.02,9.56,0.00,22.05,26.27,29.19,14.38,67.45,1019.06,2032.01,1150.20,1600.00,1730.98,600.16,599.60,25.18,0000 0000 0000 0000 000000
2017-08-11 08:41:26,-0.01,9.56,0.00,22.04,26.25,29.19,14.39,67.54,1019.06,2032.01,1150.25,1600.00,1730.96,600.45,599.78,25.23,0000 0000 0000 0000 000000
2017-08-11 08:46:27,-0.01,9.56,0.00,22.03,26.25,29.18,14.30,67.46,1019.03,2032.01,1150.31,1600.00,1730.96,599.83,599.26,25.28,0000 0000 0000 0000 000000
2017-08-11 08:51:29,0.02,9.56,0.00,22.02,26.25,29.18,14.36,67.27,1018.91,2032.03,1150.13,1600.01,1730.97,600.02,599.39,25.33,0000 0000 0000 0000 000000
2017-08-11 08:56:30,0.00,9.56,0.00,22.01,26.23,29.19,14.33,67.42,1018.62,2032.04,1150.04,1600.00,1730.97,599.79,599.01,25.38,0000 0000 0000 0000 000000
2017-08-11 09:01:31,0.00,9.56,0.00,22.01,26.22,29.16,14.39,67.42,1018.59,2032.05,1150.03,1600.01,1730.96,600.46,599.62,25.43,0000 0000 0000 0000 000000
2017-08-11 09:06:32,0.02,9.56,0.00,21.99,26.22,29.15,14.34,67.47,1018.57,2032.17,1150.05,1600.02,1730.98,600.00,599.28,25.48,0000 0000 0000 0000 000000
2017-08-11 09:11:33,0.04,9.56,0.00,21.98,26.20,29.14,14.32,67.55,1018.58,2032.54,1150.04,1600.03,1730.99,600.06,599.23,25.53,0000 0000 0000 0000 000000
2017-08-11 09:16:35,-0.02,9.56,0.00,21.98,26.20,29.13,14.38,67.64,1018.60,2032.39,1150.01,1600.04,1730.99,599.67,598.93,25.58,0000 0000 0000 0000 000000
2017-08-11 09:21:36,0.02,9.56,0.00,21.98,26.20,29.14,14.35,67.49,1018.58,2032.50,1150.00,1600.04,1730.98,599.87,599.25,25.63,0000 0000 0000 0000 000000
2017-08-11 09:26:37,0.02,9.56,0.00,21.97,26.18,29.14,14.31,67.61,1018.57,2032.68,1150.00,1600.07,1730.99,599.69,598.95,25.69,0000 0000 0000 0000 000000
2017-08-11 09:31:39,0.02,9.56,0.00,21.97,26.17,29.11,14.30,67.61,1018.58,2032.86,1150.00,1600.08,1730.99,599.54,598.76,25.74,0000 0000 0000 0000 000000
2017-08-11 09:36:40,-0.01,9.56,0.00,21.97,26.17,29.11,14.35,67.47,1018.57,2032.82,1150.00,1600.06,1730.99,599.91,599.11,25.79,0000 0000 0000 0000 000000
2017-08-11 09:41:41,0.00,9.56,0.00,21.97,26.16,29.11,14.36,67.61,1018.57,2032.91,1149.99,1600.10,1730.99,599.89,599.15,25.84,0000 0000 0000 0000 000000
2017-08-11 09:46:43,0.02,9.56,0.00,21.95,26.15,29.11,14.32,67.45,1018.56,2032.92,1149.99,1600.08,1730.99,599.84,599.10,25.89,0000 0000 0000 0000 000000
2017-08-11 09:51:44,-0.01,9.56,0.00,21.95,26.15,29.08,14.33,67.68,1018.54,2032.95,1149.99,1600.14,1730.99,599.86,599.23,25.94,0000 0000 0000 0000 000000
2017-08-11 09:56:45,-0.00,9.56,0.00,21.94,26.15,29.10,14.25,67.27,1018.51,2032.97,1149.99,1600.19,1730.99,599.55,598.94,25.99,0000 0000 0000 0000 000000
2017-08-11 10:01:46,-0.01,9.56,0.00,21.94,26.13,29.06,14.32,67.54,1018.40,2032.97,1149.99,1600.39,1731.00,599.83,599.08,26.04,0000 0000 0000 0000 000000
2017-08-11 10:06:47,-0.00,9.56,0.00,21.93,26.12,29.07,14.30,67.72,1018.24,2032.98,1149.98,1600.51,1731.01,599.96,599.05,26.09,0000 0000 0000 0000 000000
2017-08-11 10:11:49,-0.00,9.56,0.00,21.92,26.12,29.06,14.31,67.90,1018.17,2032.99,1149.95,1600.67,1731.02,599.93,599.08,26.14,0000 0000 0000 0000 000000
2017-08-11 10:16:50,-0.01,9.56,0.00,21.92,26.12,29.06,14.46,67.95,1018.10,2032.99,1149.95,1600.73,1731.01,599.98,599.14,26.19,0000 0000 0000 0000 000000
2017-08-11 10:21:52,-0.00,9.56,0.00,21.91,26.11,29.06,14.36,67.79,1018.10,2032.99,1149.90,1600.84,1731.03,599.94,599.13,26.24,0000 0000 0000 0000 000000
2017-08-11 10:26:53,0.00,9.56,0.00,21.90,26.10,29.04,14.37,68.00,1018.09,2032.99,1149.87,1600.83,1731.02,600.18,599.29,26.29,0000 0000 0000 0000 000000
2017-08-11 10:31:54,-0.01,9.56,0.00,21.90,26.10,29.03,14.36,67.82,1018.09,2032.99,1149.78,1600.88,1731.02,599.75,599.01,26.34,0000 0000 0000 0000 000000
2017-08-11 10:36:55,0.01,9.56,0.00,21.90,26.10,29.04,14.37,67.97,1018.09,2032.99,1149.70,1600.96,1731.04,600.20,599.25,26.39,0000 0000 0000 0000 000000
2017-08-11 10:41:57,0.01,9.56,0.00,21.90,26.09,29.00,14.32,68.00,1018.08,2033.00,1149.53,1600.94,1731.02,599.69,598.84,26.44,0000 0000 0000 0000 000000
2017-08-11 10:46:58,0.01,9.56,0.00,21.89,26.08,29.03,14.34,67.82,1018.06,2033.00,1149.35,1600.93,1731.08,600.22,599.24,26.49,0000 0000 0000 0000 000000
2017-08-11 10:51:59,0.02,9.56,0.00,21.89,26.07,29.02,14.36,67.90,1017.94,2033.00,1149.13,1600.97,1731.07,599.64,598.69,26.54,0000 0000 0000 0000 000000
2017-08-11 10:57:01,0.00,9.57,0.00,21.88,26.07,29.02,14.35,67.83,1017.83,2033.01,1149.03,1600.97,1731.19,600.06,599.09,26.59,0000 0000 0000 0000 000000
2017-08-11 11:02:02,0.00,9.57,0.00,21.88,26.07,28.99,14.39,67.97,1017.76,2033.00,1149.03,1600.97,1731.13,600.00,598.95,26.64,0000 0000 0000 0000 000000
2017-08-11 11:07:03,0.00,9.57,0.00,21.89,26.07,29.01,14.41,67.92,1017.64,2033.01,1149.04,1600.95,1731.08,600.32,599.13,26.69,0000 0000 0000 0000 000000
2017-08-11 11:12:05,0.00,9.57,0.00,21.89,26.05,29.01,14.36,67.84,1017.65,2033.04,1149.04,1600.97,1731.09,600.30,599.18,26.74,0000 0000 0000 0000 000000
2017-08-11 11:17:06,-0.00,9.57,0.00,21.88,26.05,29.01,14.34,67.88,1017.61,2033.03,1149.02,1600.98,1731.17,600.38,599.23,26.79,0000 0000 0000 0000 000000
2017-08-11 11:22:07,-0.00,9.57,0.00,21.88,26.05,28.99,14.32,67.88,1017.59,2033.07,1149.00,1600.98,1731.31,599.76,598.63,26.84,0000 0000 0000 0000 000000
2017-08-11 11:27:09,0.00,9.57,0.00,21.88,26.05,29.01,14.41,67.75,1017.59,2033.09,1149.01,1600.99,1731.40,600.07,598.96,26.89,0000 0000 0000 0000 000000
2017-08-11 11:32:10,0.00,9.57,0.00,21.87,26.04,29.00,14.35,67.81,1017.56,2033.08,1149.00,1600.97,1731.33,600.07,599.06,26.94,0000 0000 0000 0000 000000
2017-08-11 11:37:11,0.01,9.57,0.00,21.87,26.04,28.99,14.33,67.92,1017.47,2033.22,1149.00,1600.98,1731.70,599.99,598.86,26.99,0000 0000 0000 0000 000000
2017-08-11 11:42:13,0.01,9.57,0.00,21.85,26.02,28.99,14.37,67.93,1017.42,2033.32,1149.00,1600.99,1731.72,599.95,598.75,27.04,0000 0000 0000 0000 000000
2017-08-11 11:47:14,-0.02,9.57,0.00,21.85,26.02,28.99,14.33,68.03,1017.28,2033.21,1149.00,1600.98,1731.67,599.93,598.66,27.09,0000 0000 0000 0000 000000
2017-08-11 11:52:16,0.03,9.57,0.00,21.87,26.02,28.99,14.36,67.95,1017.22,2033.36,1148.99,1600.99,1731.80,600.01,598.66,27.14,0000 0000 0000 0000 000000
2017-08-11 11:57:17,0.02,9.57,0.00,21.86,26.02,28.98,14.35,67.88,1017.12,2033.49,1148.99,1600.99,1731.81,599.91,598.42,27.19,0000 0000 0000 0000 000000
2017-08-11 12:02:18,-0.00,9.57,0.00,21.86,26.02,28.99,14.31,67.99,1017.11,2033.69,1148.99,1600.99,1731.77,600.05,598.69,27.24,0000 0000 0000 0000 000000
2017-08-11 12:07:19,0.04,9.57,0.00,21.86,26.02,28.98,14.33,67.84,1017.11,2033.91,1148.98,1600.99,1731.92,599.92,598.58,27.29,0000 0000 0000 0000 000000
2017-08-11 12:12:21,-0.00,9.57,0.00,21.85,26.02,28.99,14.32,67.54,1017.11,2033.96,1148.97,1600.99,1731.95,599.89,598.55,27.34,0000 0000 0000 0000 000000
2017-08-11 12:17:22,0.00,9.57,0.00,21.86,26.01,29.00,14.41,67.98,1017.11,2033.93,1148.93,1600.99,1731.95,600.06,598.73,27.39,0000 0000 0000 0000 000000
2017-08-11 12:22:22,0.01,9.57,0.00,21.86,26.00,28.97,14.33,67.92,1017.11,2033.92,1148.84,1600.99,1731.92,600.19,598.68,27.44,0000 0000 0000 0000 000000
2017-08-11 12:27:24,0.03,9.57,0.00,21.84,26.00,28.98,14.39,67.95,1017.11,2033.91,1148.55,1600.99,1731.87,600.07,598.76,27.49,0000 0000 0000 0000 000000
2017-08-11 12:32:25,0.02,9.57,0.00,21.85,26.00,28.96,14.34,67.80,1017.11,2033.92,1148.27,1600.99,1731.91,599.69,598.48,27.54,0000 0000 0000 0000 000000
2017-08-11 12:37:27,0.01,9.57,0.00,21.85,26.00,28.96,14.34,67.97,1017.11,2033.93,1148.21,1600.99,1731.90,599.87,598.45,27.59,0000 0000 0000 0000 000000
2017-08-11 12:42:28,0.01,9.57,0.00,21.85,26.00,28.96,14.41,67.80,1017.10,2033.99,1148.08,1600.99,1731.96,600.20,598.83,27.64,0000 0000 0000 0000 000000
2017-08-11 12:47:29,-0.00,9.57,0.00,21.85,26.00,28.98,14.35,67.94,1017.09,2033.97,1148.05,1600.99,1731.95,600.19,598.83,27.69,0000 0000 0000 0000 000000
2017-08-11 12:52:30,0.00,9.57,0.00,21.85,26.00,28.98,14.32,67.94,1017.04,2033.96,1148.05,1600.99,1731.95,600.16,598.75,27.74,0000 0000 0000 0000 000000
2017-08-11 12:57:31,0.00,9.58,0.00,21.85,26.00,28.97,14.44,67.98,1016.93,2033.99,1148.01,1600.99,1731.96,600.29,598.82,27.79,0000 0000 0000 0000 000000